Location: Kuffner-Sternwarte
(48.2130°N, 16.2960°E)
Time: 11:16:43
(UTC+02:00)

COROT - Pass Details

Date: 24 May 2018
Orbit: 602 x 886 km, 90.0° (Epoch: 19 October)

Event Time Altitude Azimuth Distance (km) Brightness Sun altitude
Rises 21:14:16 0° 6° (N) 3,076 9.7 -5.6°
Reaches altitude 10° 21:16:32 10° 12° (NNE) 2,196 8.8 -5.9°
Maximum altitude 21:21:17 49° 88° (E) 963 6.3 -6.5°
Drops below altitude 10° 21:26:22 10° 163° (SSE) 2,361 8.0 -7.1°
Enters shadow 21:28:05 - 167° (SSE) 3,016 8.6 -7.3°
